Back to catalog

QIANFAN-232

AliveCommunicationsPO
NORAD 69861·PAYLOAD·🇨🇳 China

Launched Jul 5, 2026 from Wenchang Space Launch Site

Loading…

Next Passes (next 24 hours)

TLE

FreshSource: Space-Track

Epoch: Sep 14, 2026, 12:14 UTC

1 69861U 26155P   26257.51023875 -.01867513  00000-0 -31448+1 0  9995
2 69861  89.0072  54.2918 0027541  22.5496 337.6858 13.49981495  9938

Track QIANFAN-232 in real time with AllMySat

Download on the App Store